Regional Weather Roundup
Issued by NWS

Home | Current Version | Previous Version | Graphics & Text | Print | Product List | Glossary On
Versions: 1 2 3 4 5 6 7 8 9 10 11 12 13 14 15 16 17 18 19 20 21 22 23 24 25 26 27 28 29 30 31 32 33 34 35 36 37 38 39 40 41 42 43 44 45 46 47 48 49 50
978
ASUS45 KBOI 120810
RWRID

IDAHO REGIONAL WEATHER ROUNDUP
NATIONAL WEATHER SERVICE BOISE ID
100 AM MST FRI FEB 12 2016

NOTE: "FAIR" INDICATES FEW OR NO CLOUDS BELOW 12000 FEET
WITH NO SIGNIFICANT WEATHER AND/OR OBSTRUCTIONS TO VISIBILITY

IDZ012-014-120900-
SOUTHWEST IDAHO


CITY           SKY/WX    TMP DP  RH WIND       PRES   REMARKS
BOISE          PTCLDY    33  29  85 CALM      30.32F
CALDWELL       PTCLDY    30  30 100 E3        30.34F FOG
MOUNTAIN HOME  PTCLDY    31  28  88 E5        30.32R WCI  26
$$

IDZ016-017-120900-
SOUTHCENTRAL IDAHO


CITY           SKY/WX    TMP DP  RH WIND       PRES   REMARKS
BURLEY         CLEAR     30  28  92 NE9       30.30F WCI  22
JEROME         CLEAR     29  23  78 NE24      30.30S WCI  15
TWIN FALLS     CLEAR     29  28  96 S5        30.31R WCI  24
$$

IDZ019>023-120900-
SOUTHEAST IDAHO


CITY           SKY/WX    TMP DP  RH WIND       PRES   REMARKS
IDAHO FALLS    CLOUDY    27  23  85 CALM      30.36F
POCATELLO      CLOUDY    27  23  85 CALM      30.37R
REXBURG        CLOUDY    32  28  85 CALM      30.35S
$$

IDZ006-010-011-018-031-032-120900-
CENTRAL IDAHO MOUNTAINS


CITY           SKY/WX    TMP DP  RH WIND       PRES   REMARKS
MCCALL         PTCLDY    29  28  96 N3        30.27S
HAILEY         CLEAR     32  28  86 NW6       30.33F WCI  26
STANLEY          N/A     24  21  88 CALM      30.33F
SALMON         CLOUDY    28  27  93 CALM      30.34F
CHALLIS        PTCLDY    25  21  85 CALM      30.32F
$$

IDZ002-004-006-007-026-120900-
NORTHERN IDAHO


CITY           SKY/WX    TMP DP  RH WIND       PRES   REMARKS
LEWISTON       CLOUDY    46  42  86 E9        30.21F
LOWELL           N/A     41  39  93 CALM      30.30S
COEUR D`ALENE  CLOUDY    39  36  87 NE9       30.21S WCI  33
MULLAN PASS    LGT RAIN  33  33 100 S6        30.20F VSB 1/4 WCI  28
$$




USA.gov is the U.S. government's official web portal to all federal, state and local government web resources and services.